P/2002 Q1 ( Van Ness ) 2009

Japanese version
Home page
Total 5,708 html files since Dec. 4, 1995
Updated on April 12, 2008

---------------------------------------------------------------------

* Profile

* Orbital Elements

The following orbital elements are taken from MPC 56803:

Epoch 2009 Mar. 30.0 TT = JDT 2454920.5
T 2009 Mar. 20.9521 TT                                  MPC
q   1.551187             (2000.0)            P               Q
n   0.1469114      Peri.  185.0196      +0.9980782      -0.0030215
a   3.557124       Node   173.9961      -0.0106437      +0.9756074
e   0.563921       Incl.   36.2801      -0.0610460      -0.2195020
P   6.71
From 53 observations 2002 Aug. 17-Oct. 14, mean residual 0".7.

* Magnitudes Graph

        m1 = 14.5 + 5 log d + 10.0 log r

---------------------------------------------------------------------

The orbital elements are published at the MPC Ephemerides and Orbital Elements.
The magnitudes graphs are made with Comet for Windows.

---------------------------------------------------------------------

Copyright(C) 1995-2007 Seiichi Yoshida (comet@aerith.net). All rights reserved.